Погода в Большом Улуе

Россия / Красноярский край     56°39′16″N   90°34′17″E
темп.,
°C
ветер,
м/с
пор.,
м/с
влажн.,
%
обл.,
%
осадки,
мм/ч
давл.,
гПа
погр.,
м
7 мая, пт
пт701:00+11юв3678100 0.0 100598
04:00+10юв3780100 0.0 1003136
07:00+12юв3775100 0.0 1002202
10:00+17ю4760100 0.1 1001386
13:00+19зюз5761100 0.4 10011599
16:00+12зсз51177100 0.1 1005997
19:00+14сз6105188 0.1 10071361
22:00+9з38672 0.0 1010208
8 мая, сб
сб801:00+8з3107987 0.2 1012292
04:00+6з310805 0.1 1013333
07:00+7з410715 0.1 1015639
10:00+11зюз61045100 0.0 10142161
13:00+13зюз61036100 0.0 10122567
16:00+12з51462100 0.6 10111942
19:00+8ссз3587100 2.0 1012460
22:00+6зсз3891100 0.8 1012374
9 мая, вс
вс901:00+5зсз498376 1.3 1013579
04:00+3зсз498593 0.1 1014515
07:00+3зсз410855 0.2 1016655
10:00+5зсз51080100 0.1 10171000
13:00+6сз597792 0.3 10191031
16:00+7ссз4865100 0.0 10201285
19:00+7ссв36665 0.0 1021822
22:00+3с22875 0.0 102313
10 мая, пн
пн1001:00+2сз118985 0.0 102311
04:00+3сз1183100 0.0 102211
07:00+5ссв1176100 0.0 102258
10:00+8св235263 0.0 10211239
13:00+11всв234480 0.0 10191813
16:00+13в444097 0.0 10172013
19:00+11всв365694 0.0 1017824
22:00+8св387099 0.0 1016265
11 мая, вт
вт1101:00+5св39865 0.0 1015200
04:00+4ссв39885 0.0 1015202
07:00+6ссв39795 0.0 1015275
10:00+12св475463 0.0 10141079
13:00+14всв574695 0.6 10142087
16:00+13св475386 0.3 10151499
19:00+13св475163 0.4 10161019
22:00+8ссв39775 0.0 1018196